Reading, PA

8:54 AM EST on January 16, 2018 (GMT -0500)
Reading Regional-Spaatz

Weather History for KRDG - January, 2013

Change the Weather History Date:

Tuesday, January 22, 2013

  Actual Average Record
Temperature  
Mean Temperature 18 °F 29 °F  
Max Temperature 24 °F 38 °F 67 °F (1959)
Min Temperature 11 °F 21 °F -12 °F (1984)
Degree Days  
Heating Degree Days 47 36  
Month to date heating degree days 638 777  
Since 1 July heating degree days 2475 2808  
Cooling Degree Days 0 0  
Month to date cooling degree days 0 0  
Year to date cooling degree days 0 0  
Moisture  
Dew Point -2 °F    
Average Humidity 48    
Maximum Humidity 62    
Minimum Humidity 34    
Precipitation  
Precipitation 0.00 in 0.08 in 1.11 in (1891)
Month to date precipitation 1.15 2.27  
Year to date precipitation 1.15 2.27  
Sea Level Pressure  
Sea Level Pressure 30.14 in    
Wind  
Wind Speed 16 mph (WNW)    
Max Wind Speed 26 mph    
Max Gust Speed 33 mph    
Visibility 10 miles    
Events      
T = Trace of Precipitation, MM = Missing Value Source: NWS Daily Summary

Daily Weather History Graph

Daily Weather History Graph

Search for Another Location

Airport or City:

Trip Planner

Search our weather history database for the weather conditions in past years. The results will help you decide how hot, cold, wet, or windy it might be!

Date:

Astronomy

Jan. 22, 2013 Rise Set
Actual Time 7:21 AM EST 5:10 PM EST
Civil Twilight 6:51 AM EST 5:39 PM EST
Nautical Twilight 6:18 AM EST 6:13 PM EST
Astronomical Twilight 5:46 AM EST 6:45 PM EST
Moon 1:31 PM EST (1/22) 3:40 AM EST (1/22)
Length of Visible Light 10h 48m
Length of Day
9h 49m
Waxing Gibbous, 82% of the Moon is Illuminated
Jan 22
Waxing Gibbous
Jan 26
Full
Feb 3
Last Quarter
Feb 10
New
Feb 17
First Quarter

Hourly Weather History & Observations

Time (EST) Temp. Windchill Dew Point Humidity Pressure Visibility Wind Dir Wind Speed Gust Speed Precip Events Conditions
12:54 AM 21.9 °F 7.8 °F 10.0 °F 60% 29.94 in 10.0 mi WNW 17.3 mph - N/A   Mostly Cloudy
1:54 AM 21.0 °F 6.2 °F 1.0 °F 42% 29.96 in 10.0 mi WNW 18.4 mph 27.6 mph N/A   Clear
2:54 AM 19.0 °F 3.2 °F 1.0 °F 46% 29.98 in 10.0 mi WNW 19.6 mph 32.2 mph N/A   Clear
3:54 AM 18.0 °F 0.9 °F -0.9 °F 44% 30.01 in 10.0 mi WNW 21.9 mph 27.6 mph N/A   Clear
4:54 AM 17.1 °F 1.5 °F -0.9 °F 45% 30.03 in 10.0 mi WNW 17.3 mph 25.3 mph N/A   Clear
5:54 AM 16.0 °F 1.1 °F -0.0 °F 49% 30.06 in 10.0 mi WNW 15.0 mph 25.3 mph N/A   Clear
6:54 AM 16.0 °F 1.7 °F -0.9 °F 47% 30.08 in 10.0 mi West 13.8 mph 29.9 mph N/A   Clear
7:54 AM 16.0 °F 2.3 °F -0.0 °F 49% 30.10 in 10.0 mi West 12.7 mph - N/A   Clear
8:54 AM 17.1 °F 2.0 °F -2.0 °F 43% 30.14 in 10.0 mi WNW 16.1 mph 27.6 mph N/A   Mostly Cloudy
9:54 AM 17.1 °F 0.1 °F -2.0 °F 43% 30.16 in 10.0 mi WNW 20.7 mph 28.8 mph N/A   Mostly Cloudy
10:54 AM 17.1 °F -0.6 °F -6.0 °F 36% 30.16 in 10.0 mi WNW 23.0 mph 28.8 mph N/A   Mostly Cloudy
11:54 AM 19.0 °F 2.4 °F -5.1 °F 34% 30.14 in 10.0 mi West 21.9 mph 27.6 mph N/A   Mostly Cloudy
12:54 PM 19.0 °F 2.7 °F -5.1 °F 34% 30.13 in 10.0 mi West 20.7 mph 27.6 mph N/A   Mostly Cloudy
1:54 PM 19.0 °F 4.0 °F -4.0 °F 36% 30.13 in 10.0 mi WNW 17.3 mph 23.0 mph N/A   Overcast
2:54 PM 19.0 °F 4.0 °F -5.1 °F 34% 30.14 in 10.0 mi WNW 17.3 mph 25.3 mph N/A   Scattered Clouds
3:54 PM 19.0 °F 2.7 °F -5.1 °F 34% 30.16 in 10.0 mi NW 20.7 mph 25.3 mph N/A   Mostly Cloudy
4:54 PM 17.1 °F 3.6 °F -5.1 °F 37% 30.19 in 10.0 mi WNW 12.7 mph - N/A   Partly Cloudy
5:54 PM 16.0 °F 1.7 °F -5.1 °F 39% 30.21 in 10.0 mi WNW 13.8 mph - N/A   Clear
6:54 PM 15.1 °F 4.2 °F -2.0 °F 47% 30.25 in 10.0 mi WNW 8.1 mph - N/A   Clear
7:54 PM 15.1 °F -1.1 °F -4.0 °F 43% 30.25 in 10.0 mi WNW 17.3 mph - N/A   Clear
8:54 PM 14.0 °F -0.8 °F -2.9 °F 47% 30.27 in 10.0 mi WNW 13.8 mph - N/A   Partly Cloudy
9:54 PM 12.9 °F -2.2 °F -2.0 °F 51% 30.28 in 10.0 mi WNW 13.8 mph - N/A   Clear
10:54 PM 12.9 °F -0.2 °F -4.0 °F 47% 30.28 in 10.0 mi WNW 10.4 mph - N/A   Clear
11:54 PM 12.0 °F 1.5 °F -2.9 °F 51% 30.27 in 10.0 mi West 6.9 mph - N/A   Clear